Location: Derby
(52.9213°N, 1.4761°W)
Time: 18:10:07
(UTC+01:00)

Tiros 1 - Pass Details

Date: 19 May 2025
Orbit: 620 x 651 km, 48.4° (Epoch: 13 June)

Event Time Altitude Azimuth Distance (km) Brightness Sun altitude
Rises 00:36:02 0° 275° (W) 2,926 10.7 -17.1°
Reaches altitude 10° 00:38:53 10° 258° (WSW) 2,022 9.6 -17.1°
Enters shadow 00:41:23 18° 227° (SW) 1,544 8.7 -17.2°
Maximum altitude 00:42:09 19° 213° (SSW) 1,512 - -17.2°
Drops below altitude 10° 00:45:27 10° 168° (SSE) 2,029 - -17.2°
Sets 00:48:19 0° 151° (SSE) 2,941 - -17.2°
